Location: Palomar Mountain Lodge
(33.3110°N, 116.8495°W)
Time: 07:01:53
(UTC-07:00)

SO-50 - Visible Passes

Search period start: 13 April 2026 00:00
Search period end: 23 April 2026 00:00
Orbit: 567 x 673 km, 64.6° (Epoch: 13 April)

Date Brightness Start Highest point End Pass type
(mag) Time Alt. Az. Time Alt. Az. Time Alt. Az.
13 Apr ? 19:45:43 10° NNW 19:50:30 82° ENE 19:55:06 10° SSE visible
14 Apr ? 20:03:32 10° NW 20:08:00 43° WSW 20:12:20 10° S visible
15 Apr ? 20:22:05 10° WNW 20:25:21 19° WSW 20:28:35 10° SSW visible
